[[{"header":{"parameterUnit":"m.s-1","parameterCategory":1,"la1":30.2991,"la2":30.254,"lo1":-89.0895,"lo2":-89.0444,"dy":0.0017,"dx":0.0017,"nx":28,"ny":28,"refTime":"2024-08-11T21:00:00:Z","depth":0,"parameterNumber":2,"parameterNumberName":"U-component_of_WINDS"},"data":[0,0,0,0,0,0,0,0,0,0,0,0,0,0,0,0,0,0,0,0,0,0,0,0,0,0,0,0,0,0,0,0,0,0,0,0,0,0,0,0,0,0,0,0,0,0,0,0,0,0,0,0,0,0,0,0,0,0,0.2059,0.2058,0,0.2004,0.2004,0.2003,0.1893,0.189,0.1888,0.1886,0.1834,0.1835,0.1836,0,0,0,0,0,0,0,0,0,0,0,0,0,0.2071,0.2072,0.2059,0.2058,0.2057,0.2004,0.2004,0.2003,0.1893,0.189,0.1888,0.1885,0.1834,0.1835,0.1836,0,0,0,0,0,0,0,0,0,0,0,0,0,0.2047,0.2072,0.2059,0.1996,0.199,0.2005,0.2004,0.2003,0.1894,0.189,0.1887,0.1884,0.1834,0.1835,0.1836,0.1908,0,0,0.1839,0.1839,0,0,0,0,0,0,0,0,0.2048,0.2046,0.2006,0.2,0.1994,0.1952,0.1989,0.1971,0.1894,0.193,0.1886,0.1882,0.1876,0.1874,0.1871,0.1906,0.1904,0.1839,0.184,0.184,0.184,0,0,0,0,0,0,0,0.205,0.2048,0.2037,0.2006,0.1998,0.1972,0.1965,0.1985,0.1923,0.1927,0.1919,0.1914,0.1872,0.187,0.1869,0.1903,0.1839,0.184,0.1841,0.1841,0.1996,0.1999,0,0,0,0,0,0,0.206,0.205,0.2039,0.2036,0.2013,0.1974,0.1966,0.1969,0.1922,0.1912,0.1917,0.1909,0.187,0.1868,0.1867,0.1949,0.184,0.1841,0.1842,0.1992,0.1996,0.2,0,0,0,0,0,0,0.2061,0.206,0.2041,0.2041,0.2036,0.1978,0.1981,0.1969,0.1967,0.1914,0.1903,0.1926,0.1867,0.1865,0.1899,0.1946,0.1842,0.1842,0.1988,0.1993,0.1998,0.2114,0,0,0,0,0,0,0.2062,0.2061,0.2087,0.2042,0.2037,0.2074,0.1984,0.1971,0.1969,0.1958,0.192,0.191,0.1865,0.1898,0.19,0.1945,0.1843,0.1983,0.199,0.1997,0.2106,0.2123,0.2137,0,0,0,0,0,0.2063,0.2123,0.2089,0.2089,0.2068,0.2076,0.2073,0.2019,0.1973,0.1999,0.1965,0.1911,0.194,0.1902,0.1903,0.195,0.198,0.1988,0.1996,0.2099,0.212,0.2137,0,0,0,0,0,0,0.2177,0.2116,0.2078,0.2125,0.2107,0.2058,0.2089,0.2042,0.2037,0.2028,0.1961,0.1953,0.1996,0.1976,0.1935,0.2018,0.1952,0.196,0.203,0.2049,0.2064,0.2069,0.1844,0,0,0,0,0,0.2207,0.2218,0.2165,0.2212,0.2204,0.2149,0.215,0.2109,0.2088,0.208,0.2049,0.2032,0.2036,0.2041,0.2043,0.2102,0.2093,0.2135,0.2151,0.2164,0.2172,0.2203,0.2222,0.2026,0.2026,0.2026,0,0,0.2271,0.2239,0.225,0.2234,0.2214,0.2229,0.2143,0.2161,0.2171,0.2083,0.2113,0.209,0.2066,0.2113,0.2132,0.2098,0.2224,0.2174,0.2185,0.2186,0.2213,0.2232,0.2248,0.2031,0.203,0.2029,0,0,0.2394,0.237,0.2407,0.2389,0.2361,0.2323,0.2333,0.2291,0.2271,0.23,0.2234,0.2246,0.2256,0.2241,0.2236,0.2353,0.2304,0.2356,0.2438,0.2469,0.2484,0.2498,0.2541,0.2557,0.2364,0.2364,0.2365,0,0.2477,0.2494,0.2432,0.2454,0.245,0.2369,0.2407,0.2393,0.2368,0.2367,0.2328,0.2339,0.2317,0.236,0.2389,0.2386,0.2396,0.236,0.2487,0.25,0.2511,0.2552,0.2568,0.2371,0.237,0.237,0.2369,0,0.2598,0.2611,0.2644,0.262,0.2619,0.2649,0.2593,0.26,0.2559,0.2526,0.2557,0.2528,0.2522,0.2529,0.249,0.2567,0.2547,0.2499,0.2431,0.2537,0.2574,0.2589,0.238,0.2378,0.2376,0.2374,0,0,0.2792,0.2733,0.2746,0.2735,0.2698,0.2707,0.2734,0.2727,0.2735,0.272,0.2742,0.2752,0.2707,0.27,0.2659,0.2686,0.2782,0.2634,0.2632,0.2664,0.2867,0.2905,0.2923,0.2749,0.2752,0.2754,0.2869,0,0.2908,0.2949,0.2894,0.2948,0.296,0.2884,0.2907,0.2888,0.2858,0.2865,0.2832,0.284,0.278,0.2775,0.2799,0.2766,0.2823,0.2756,0.277,0.2771,0.278,0.2942,0.2982,0.3093,0.2883,0.2886,0.2887,0,0.3048,0.3039,0.3094,0.3053,0.3056,0.3078,0.3068,0.3075,0.3052,0.3028,0.3021,0.2971,0.2996,0.2929,0.2963,0.292,0.2922,0.2907,0.291,0.291,0.2837,0.2949,0.3126,0.3144,0.2909,0.2908,0.2906,0,0.3186,0.3187,0.322,0.3212,0.3166,0.3183,0.3165,0.3138,0.3138,0.3129,0.3129,0.3124,0.3122,0.312,0.307,0.3026,0.3111,0.304,0.3094,0.3095,0.3116,0.3116,0.3299,0.3116,0.3115,0.3115,0.3115,0,0.3321,0.3359,0.3281,0.3302,0.3342,0.3279,0.332,0.3294,0.3271,0.3286,0.322,0.3236,0.3169,0.3178,0.314,0.3174,0.3174,0.3156,0.3146,0.3163,0.3166,0.3165,0.3156,0.3119,0.3118,0.3118,0.3117,0,0.3483,0.3432,0.3464,0.3416,0.3406,0.3437,0.3397,0.3415,0.338,0.3401,0.3402,0.3349,0.3356,0.3306,0.3304,0.3278,0.3333,0.3308,0.334,0.3333,0.339,0.3386,0.358,0.3603,0.3405,0.3407,0.3408,0,0.3573,0.36,0.3555,0.356,0.3545,0.3553,0.3552,0.3492,0.3494,0.3469,0.3491,0.3492,0.349,0.3506,0.3468,0.3467,0.3443,0.3511,0.3442,0.3459,0.3445,0.3445,0.3448,0.3526,0.3528,0.353,0.3532,0,0.374,0.3713,0.3714,0.3706,0.3707,0.3698,0.3685,0.3693,0.3627,0.3633,0.3639,0.3638,0.3635,0.3639,0.363,0.3612,0.3562,0.3553,0.3566,0.3585,0.3603,0.3595,0.3381,0.355,0.3548,0.3546,0.3545,0.3545,0.3869,0.3889,0.3861,0.3864,0.3848,0.3837,0.3852,0.3818,0.3822,0.3815,0.3779,0.3792,0.3769,0.3751,0.3738,0.3748,0.3716,0.3734,0.3739,0.3745,0.3756,0.36,0.3746,0.3746,0.3745,0.3745,0.3744,0,0.4033,0.4011,0.4014,0.3998,0.4001,0.3951,0.3934,0.394,0.3952,0.3934,0.3933,0.3941,0.3943,0.3905,0.3903,0.3919,0.3896,0.3921,0.392,0.3917,0.3784,0.3774,0.3939,0.3939,0.3939,0.3939,0.3939,0.3939,0.4119,0.4151,0.4122,0.4145,0.4123,0.4134,0.4129,0.4119,0.4104,0.4115,0.4117,0.4091,0.4065,0.4061,0.4062,0.405,0.4054,0.4087,0.4068,0.3945,0.3926,0.3908,0.3898,0.4087,0.4088,0.42,0.4201,0.4202]},{"header":{"parameterUnit":"m.s-1","parameterCategory":1,"la1":30.2991,"la2":30.254,"lo1":-89.0895,"lo2":-89.0444,"dy":0.0017,"dx":0.0017,"nx":28,"ny":28,"refTime":"2024-08-11T21:00:00:Z","depth":0,"parameterNumber":3,"parameterNumberName":"V-component_of_WINDS"},"data":[0,0,0,0,0,0,0,0,0,0,0,0,0,0,0,0,0,0,0,0,0,0,0,0,0,0,0,0,0,0,0,0,0,0,0,0,0,0,0,0,0,0,0,0,0,0,0,0,0,0,0,0,0,0,0,0,0,0,-1.1639,-1.1639,0,-1.1626,-1.1626,-1.1625,-1.1598,-1.1597,-1.1597,-1.1596,-1.1582,-1.1582,-1.1582,0,0,0,0,0,0,0,0,0,0,0,0,0,-1.1642,-1.1643,-1.1639,-1.1639,-1.1639,-1.1626,-1.1626,-1.1625,-1.1598,-1.1597,-1.1597,-1.1596,-1.1582,-1.1582,-1.1582,0,0,0,0,0,0,0,0,0,0,0,0,0,-1.1636,-1.1643,-1.164,-1.1624,-1.1622,-1.1626,-1.1626,-1.1625,-1.1598,-1.1597,-1.1596,-1.1596,-1.1582,-1.1582,-1.1582,-1.1599,0,0,-1.1582,-1.1582,0,0,0,0,0,0,0,0,-1.1637,-1.1636,-1.1626,-1.1625,-1.1623,-1.1613,-1.1621,-1.1617,-1.1598,-1.1607,-1.1596,-1.1595,-1.1593,-1.1592,-1.1591,-1.1599,-1.1598,-1.1582,-1.1583,-1.1583,-1.1583,0,0,0,0,0,0,0,-1.1637,-1.1637,-1.1634,-1.1626,-1.1624,-1.1618,-1.1616,-1.162,-1.1605,-1.1606,-1.1604,-1.1603,-1.1592,-1.1591,-1.159,-1.1598,-1.1582,-1.1583,-1.1583,-1.1583,-1.1622,-1.1622,0,0,0,0,0,0,-1.164,-1.1637,-1.1634,-1.1634,-1.1628,-1.1618,-1.1616,-1.1617,-1.1605,-1.1602,-1.1604,-1.1602,-1.1591,-1.159,-1.159,-1.1611,-1.1583,-1.1583,-1.1583,-1.1621,-1.1622,-1.1623,0,0,0,0,0,0,-1.164,-1.164,-1.1635,-1.1635,-1.1634,-1.1619,-1.162,-1.1617,-1.1616,-1.1603,-1.16,-1.1606,-1.159,-1.159,-1.1598,-1.161,-1.1583,-1.1583,-1.162,-1.1621,-1.1622,-1.1653,0,0,0,0,0,0,-1.164,-1.164,-1.1646,-1.1635,-1.1634,-1.1643,-1.1621,-1.1617,-1.1617,-1.1614,-1.1604,-1.1601,-1.159,-1.1598,-1.1598,-1.161,-1.1583,-1.1618,-1.162,-1.1622,-1.1651,-1.1655,-1.1659,0,0,0,0,0,-1.164,-1.1655,-1.1647,-1.1647,-1.1641,-1.1644,-1.1643,-1.1629,-1.1618,-1.1624,-1.1616,-1.1602,-1.1609,-1.1599,-1.1599,-1.1611,-1.1618,-1.162,-1.1622,-1.1649,-1.1655,-1.1659,0,0,0,0,0,0,-1.1667,-1.1653,-1.1644,-1.1655,-1.1651,-1.1639,-1.1647,-1.1635,-1.1634,-1.1631,-1.1614,-1.1612,-1.1623,-1.1618,-1.1607,-1.1629,-1.1611,-1.1613,-1.1632,-1.1637,-1.1641,-1.1643,-1.1583,0,0,0,0,0,-1.1674,-1.1678,-1.1665,-1.1676,-1.1675,-1.1661,-1.1662,-1.1652,-1.1647,-1.1645,-1.1637,-1.1632,-1.1634,-1.1635,-1.1635,-1.165,-1.1648,-1.1659,-1.1663,-1.1666,-1.1669,-1.1678,-1.1683,-1.163,-1.163,-1.1629,0,0,-1.1689,-1.1682,-1.1685,-1.1682,-1.1677,-1.1682,-1.166,-1.1665,-1.1668,-1.1645,-1.1653,-1.1647,-1.1641,-1.1653,-1.1658,-1.1649,-1.1683,-1.1669,-1.1672,-1.1672,-1.1681,-1.1686,-1.169,-1.1631,-1.1631,-1.163,0,0,-1.1719,-1.1713,-1.1723,-1.1719,-1.1713,-1.1705,-1.1707,-1.1697,-1.1693,-1.1701,-1.1684,-1.1688,-1.169,-1.1687,-1.1686,-1.1717,-1.1704,-1.1717,-1.1739,-1.1749,-1.1753,-1.1756,-1.1769,-1.1774,-1.1719,-1.1719,-1.1719,0,-1.1738,-1.1744,-1.1729,-1.1736,-1.1736,-1.1716,-1.1727,-1.1724,-1.1718,-1.1718,-1.1708,-1.1712,-1.1706,-1.1719,-1.1727,-1.1725,-1.1729,-1.1718,-1.1753,-1.1757,-1.176,-1.1772,-1.1777,-1.1721,-1.1721,-1.1721,-1.1721,0,-1.1769,-1.1773,-1.1782,-1.1778,-1.1779,-1.1787,-1.1774,-1.1777,-1.1767,-1.176,-1.1769,-1.1761,-1.1761,-1.1763,-1.1753,-1.1774,-1.1769,-1.1756,-1.1739,-1.1767,-1.1778,-1.1783,-1.1724,-1.1723,-1.1722,-1.1722,0,0,-1.1815,-1.1804,-1.1807,-1.1806,-1.1799,-1.1802,-1.181,-1.1811,-1.1814,-1.1811,-1.1818,-1.1821,-1.181,-1.1809,-1.1798,-1.1806,-1.1834,-1.1793,-1.1793,-1.1802,-1.1859,-1.187,-1.1876,-1.1825,-1.1826,-1.1827,-1.186,0,-1.1844,-1.1857,-1.1845,-1.1861,-1.1866,-1.1849,-1.1856,-1.1853,-1.1846,-1.185,-1.1842,-1.1846,-1.1829,-1.1829,-1.1836,-1.1829,-1.1845,-1.1826,-1.1833,-1.1833,-1.1836,-1.1881,-1.1892,-1.1924,-1.1864,-1.1865,-1.1866,0,-1.1879,-1.188,-1.1897,-1.189,-1.1892,-1.1898,-1.1899,-1.1902,-1.1898,-1.1893,-1.1893,-1.1881,-1.1889,-1.1871,-1.1883,-1.1871,-1.1873,-1.187,-1.187,-1.1872,-1.1852,-1.1885,-1.1934,-1.1939,-1.1872,-1.1871,-1.1871,0,-1.1913,-1.1917,-1.1929,-1.1928,-1.192,-1.1926,-1.1923,-1.1919,-1.192,-1.192,-1.1921,-1.1922,-1.1923,-1.1924,-1.1913,-1.1901,-1.1927,-1.1908,-1.1924,-1.1925,-1.1931,-1.1931,-1.1983,-1.193,-1.193,-1.193,-1.193,0,-1.1948,-1.1959,-1.1944,-1.1951,-1.1964,-1.195,-1.1964,-1.1959,-1.1955,-1.1962,-1.1946,-1.1952,-1.1936,-1.1941,-1.1932,-1.1945,-1.1945,-1.1942,-1.1939,-1.1944,-1.1945,-1.1946,-1.1944,-1.1932,-1.1931,-1.1931,-1.1931,0,-1.1988,-1.1978,-1.199,-1.1982,-1.198,-1.1991,-1.1984,-1.1991,-1.1984,-1.1992,-1.1993,-1.1982,-1.1988,-1.1976,-1.1979,-1.1974,-1.1992,-1.1985,-1.1994,-1.1992,-1.201,-1.2009,-1.2065,-1.2073,-1.2014,-1.2015,-1.2015,0,-1.2011,-1.202,-1.2014,-1.2018,-1.2016,-1.2021,-1.2023,-1.201,-1.2013,-1.2011,-1.2018,-1.2022,-1.2025,-1.2034,-1.2027,-1.2029,-1.2024,-1.2043,-1.2024,-1.2029,-1.2026,-1.2027,-1.2028,-1.2048,-1.2048,-1.2049,-1.2049,0,-1.2054,-1.205,-1.2053,-1.2056,-1.2059,-1.206,-1.206,-1.2064,-1.205,-1.2055,-1.206,-1.2062,-1.2067,-1.2071,-1.2073,-1.207,-1.2058,-1.2056,-1.206,-1.2065,-1.207,-1.207,-1.2006,-1.2054,-1.2054,-1.2054,-1.2053,-1.2053,-1.2088,-1.2096,-1.2093,-1.2099,-1.2098,-1.2099,-1.2105,-1.21,-1.2104,-1.2107,-1.2099,-1.2107,-1.2105,-1.2106,-1.2105,-1.2111,-1.2102,-1.2108,-1.211,-1.2112,-1.2116,-1.2068,-1.2111,-1.2111,-1.2111,-1.2111,-1.211,0,-1.2132,-1.213,-1.2135,-1.2136,-1.2141,-1.2129,-1.2129,-1.2134,-1.2141,-1.214,-1.2144,-1.2151,-1.2156,-1.215,-1.2154,-1.2161,-1.2155,-1.2162,-1.2162,-1.2162,-1.2122,-1.2119,-1.2167,-1.2167,-1.2166,-1.2166,-1.2166,-1.2166,-1.2155,-1.2169,-1.2164,-1.2177,-1.2175,-1.2183,-1.2184,-1.2186,-1.2185,-1.2194,-1.2199,-1.2195,-1.2192,-1.2196,-1.2201,-1.2199,-1.2202,-1.2211,-1.2207,-1.217,-1.2165,-1.216,-1.2157,-1.2211,-1.2211,-1.2247,-1.2247,-1.2248]}]]